When you browse on this site, cookies collect data to enhance your experience and personalize the content and advertising you see.
Visit our Privacy Policy to learn more. By continuing to use the site, you agree to this use of cookies and data.
  • Em Portugal
  • Lista de países
  • Para 7 dias
  • Temperatura da água
  • Mapas de satélite
  • Mapa do tempo
  • Widgets de tempo
  • user-avatar
    Iniciar Sessão

    Previsão horária em Kusva

    Hoje, 22 Abril, Segunda-feira

    Tempo Temperatura Precipitação Vento Pressão Humidade
    00:00 +7°C° 0 mm 2 m/s 765 mmHg 66%
    01:00 +7°C° 0 mm 1 m/s 766 mmHg 68%
    02:00 +7°C° 0 mm 1 m/s 766 mmHg 69%
    03:00 +7°C° 0 mm 1 m/s 766 mmHg 69%
    04:00 +7°C° 0 mm 1 m/s 766 mmHg 70%
    05:00 +6°C° 0 mm 1 m/s 766 mmHg 71%
    06:00 +8°C° 0 mm 1 m/s 766 mmHg 66%
    07:00 +10°C° 0 mm 1 m/s 766 mmHg 61%
    08:00 +12°C° 0 mm 1 m/s 767 mmHg 56%
    09:00 +14°C° 0 mm 2 m/s 767 mmHg 50%
    10:00 +16°C° 0 mm 2 m/s 767 mmHg 43%
    11:00 +18°C° 0 mm 2 m/s 767 mmHg 36%
    12:00 +18°C° 0 mm 2 m/s 767 mmHg 35%
    13:00 +19°C° 0 mm 2 m/s 767 mmHg 33%
    14:00 +19°C° 0 mm 2 m/s 766 mmHg 31%
    15:00 +19°C° 0 mm 2 m/s 766 mmHg 32%
    16:00 +19°C° 0 mm 2 m/s 766 mmHg 33%
    17:00 +19°C° 0 mm 2 m/s 766 mmHg 34%
    18:00 +17°C° 0 mm 2 m/s 766 mmHg 40%
    19:00 +15°C° 0 mm 2 m/s 767 mmHg 47%
    20:00 +13°C° 0 mm 2 m/s 767 mmHg 53%
    21:00 +12°C° 0 mm 2 m/s 767 mmHg 55%
    22:00 +10°C° 0 mm 2 m/s 767 mmHg 57%
    23:00 +10°C° 0 mm 2 m/s 768 mmHg 60%

    Amanhã, 23 Abril, Terça-feira

    Tempo Temperatura Precipitação Vento Pressão Humidade
    00:00 +9°C° 0 mm 2 m/s 768 mmHg 61%
    01:00 +9°C° 0 mm 2 m/s 768 mmHg 63%
    02:00 +8°C° 0 mm 2 m/s 768 mmHg 64%
    03:00 +8°C° 0 mm 2 m/s 768 mmHg 66%
    04:00 +8°C° 0 mm 2 m/s 769 mmHg 67%
    05:00 +7°C° 0 mm 2 m/s 769 mmHg 69%
    06:00 +9°C° 0 mm 2 m/s 769 mmHg 64%
    07:00 +12°C° 0 mm 1 m/s 769 mmHg 59%
    08:00 +14°C° 0 mm 1 m/s 769 mmHg 53%
    09:00 +15°C° 0 mm 1 m/s 769 mmHg 47%
    10:00 +17°C° 0 mm 2 m/s 769 mmHg 41%
    11:00 +18°C° 0 mm 2 m/s 769 mmHg 36%
    12:00 +19°C° 0 mm 2 m/s 769 mmHg 34%
    13:00 +19°C° 0 mm 2 m/s 768 mmHg 32%
    14:00 +21°C° 0 mm 1 m/s 768 mmHg 30%
    15:00 +21°C° 0 mm 1 m/s 768 mmHg 30%
    16:00 +21°C° 0 mm 1 m/s 768 mmHg 30%
    17:00 +20°C° 0 mm 1 m/s 767 mmHg 31%
    18:00 +18°C° 0 mm 1 m/s 768 mmHg 36%
    19:00 +16°C° 0 mm 1 m/s 768 mmHg 41%
    20:00 +14°C° 0 mm 1 m/s 768 mmHg 46%
    21:00 +13°C° 0 mm 1 m/s 768 mmHg 48%
    22:00 +12°C° 0 mm 1 m/s 768 mmHg 51%
    23:00 +11°C° 0 mm 1 m/s 768 mmHg 54%

    Depois de amanhã, 24 Abril, Quarta-feira

    Tempo Temperatura Precipitação Vento Pressão Humidade
    00:00 +11°C° 0 mm 1 m/s 768 mmHg 56%
    01:00 +10°C° 0 mm 1 m/s 768 mmHg 58%
    02:00 +10°C° 0 mm 1 m/s 768 mmHg 59%
    03:00 +9°C° 0 mm 0 m/s 769 mmHg 60%
    04:00 +8°C° 0 mm 0 m/s 769 mmHg 61%
    05:00 +8°C° 0 mm 0 m/s 769 mmHg 62%
    06:00 +10°C° 0 mm 0 m/s 769 mmHg 57%
    07:00 +13°C° 0 mm 1 m/s 769 mmHg 52%
    08:00 +15°C° 0 mm 1 m/s 769 mmHg 47%
    09:00 +18°C° 0 mm 1 m/s 769 mmHg 43%
    10:00 +18°C° 0 mm 2 m/s 768 mmHg 39%
    11:00 +20°C° 0 mm 2 m/s 768 mmHg 34%
    12:00 +20°C° 0 mm 2 m/s 768 mmHg 33%
    13:00 +21°C° 0 mm 2 m/s 768 mmHg 33%
    14:00 +21°C° 0 mm 3 m/s 767 mmHg 32%
    15:00 +21°C° 0 mm 2 m/s 767 mmHg 33%
    16:00 +21°C° 0 mm 2 m/s 767 mmHg 34%
    17:00 +21°C° 0 mm 2 m/s 766 mmHg 34%
    18:00 +19°C° 0 mm 2 m/s 766 mmHg 40%
    19:00 +18°C° 0 mm 1 m/s 766 mmHg 46%
    20:00 +15°C° 0 mm 1 m/s 766 mmHg 52%
    21:00 +14°C° 0 mm 1 m/s 767 mmHg 54%
    22:00 +13°C° 0 mm 1 m/s 767 mmHg 56%
    23:00 +13°C° 0 mm 1 m/s 767 mmHg 59%

    25 Abril, Quinta-feira

    Tempo Temperatura Precipitação Vento Pressão Humidade
    00:00 +12°C° 0 mm 1 m/s 767 mmHg 60%
    01:00 +12°C° 0 mm 1 m/s 767 mmHg 62%
    02:00 +11°C° 0 mm 1 m/s 767 mmHg 63%
    03:00 +11°C° 0 mm 1 m/s 767 mmHg 65%
    04:00 +9°C° 0 mm 2 m/s 767 mmHg 67%
    05:00 +9°C° 0 mm 2 m/s 767 mmHg 68%
    06:00 +12°C° 0 mm 2 m/s 767 mmHg 64%
    07:00 +13°C° 0 mm 2 m/s 767 mmHg 59%
    08:00 +15°C° 0 mm 2 m/s 766 mmHg 55%
    09:00 +17°C° 0 mm 3 m/s 766 mmHg 49%
    10:00 +18°C° 0 mm 3 m/s 766 mmHg 43%
    11:00 +20°C° 0 mm 4 m/s 766 mmHg 37%
    12:00 +21°C° 0 mm 4 m/s 765 mmHg 36%
    13:00 +21°C° 0 mm 4 m/s 765 mmHg 35%
    14:00 +21°C° 0 mm 4 m/s 765 mmHg 34%
    15:00 +21°C° 0 mm 4 m/s 764 mmHg 35%
    16:00 +21°C° 0 mm 4 m/s 764 mmHg 36%
    17:00 +21°C° 0 mm 3 m/s 763 mmHg 37%
    18:00 +19°C° 0 mm 3 m/s 763 mmHg 43%
    19:00 +17°C° 0 mm 3 m/s 763 mmHg 49%
    20:00 +15°C° 0 mm 2 m/s 763 mmHg 56%
    21:00 +14°C° 0 mm 2 m/s 763 mmHg 58%
    22:00 +14°C° 0 mm 2 m/s 763 mmHg 61%
    23:00 +13°C° 0 mm 2 m/s 763 mmHg 63%

    26 Abril, Sexta-feira

    Tempo Temperatura Precipitação Vento Pressão Humidade
    00:00 +13°C° 0 mm 2 m/s 763 mmHg 65%
    01:00 +12°C° 0 mm 2 m/s 762 mmHg 67%
    02:00 +12°C° 0 mm 2 m/s 762 mmHg 69%
    03:00 +10°C° 0 mm 2 m/s 762 mmHg 72%
    04:00 +10°C° 0 mm 2 m/s 761 mmHg 74%
    05:00 +9°C° 0 mm 2 m/s 761 mmHg 77%
    06:00 +12°C° 0 mm 2 m/s 761 mmHg 71%
    07:00 +13°C° 0 mm 3 m/s 761 mmHg 66%
    08:00 +14°C° 0 mm 3 m/s 760 mmHg 60%
    09:00 +17°C° 0 mm 3 m/s 760 mmHg 55%
    10:00 +19°C° 0 mm 3 m/s 760 mmHg 50%
    11:00 +21°C° 0 mm 3 m/s 759 mmHg 45%
    12:00 +22°C° 0 mm 3 m/s 759 mmHg 43%
    13:00 +22°C° 0 mm 3 m/s 759 mmHg 42%
    14:00 +24°C° 0 mm 3 m/s 758 mmHg 40%
    15:00 +24°C° 0 mm 3 m/s 758 mmHg 41%
    16:00 +24°C° 0 mm 2 m/s 758 mmHg 42%
    17:00 +24°C° 0 mm 2 m/s 757 mmHg 43%
    18:00 +21°C° 0 mm 2 m/s 757 mmHg 50%
    19:00 +19°C° 0 mm 2 m/s 757 mmHg 56%
    20:00 +17°C° 0 mm 2 m/s 757 mmHg 63%
    21:00 +16°C° 0 mm 2 m/s 757 mmHg 66%
    22:00 +16°C° 0 mm 2 m/s 757 mmHg 68%
    23:00 +15°C° 0 mm 2 m/s 757 mmHg 71%

    27 Abril, Sábado

    Tempo Temperatura Precipitação Vento Pressão Humidade
    00:00 +14°C° 0 mm 2 m/s 757 mmHg 74%
    01:00 +14°C° 0 mm 2 m/s 757 mmHg 76%
    02:00 +13°C° 0 mm 2 m/s 757 mmHg 79%
    03:00 +13°C° 0 mm 2 m/s 757 mmHg 79%
    04:00 +13°C° 0 mm 2 m/s 757 mmHg 79%
    05:00 +13°C° 0 mm 2 m/s 757 mmHg 80%
    06:00 +14°C° 0 mm 2 m/s 756 mmHg 74%
    07:00 +16°C° 0 mm 3 m/s 756 mmHg 68%
    08:00 +17°C° 0 mm 3 m/s 756 mmHg 62%
    09:00 +17°C° 0.3 mm 3 m/s 756 mmHg 64%
    10:00 +18°C° 0.3 mm 3 m/s 756 mmHg 66%
    11:00 +18°C° 0.3 mm 3 m/s 756 mmHg 67%
    12:00 +18°C° 0.5 mm 4 m/s 755 mmHg 70%
    13:00 +18°C° 0.5 mm 4 m/s 755 mmHg 73%
    14:00 +18°C° 0.5 mm 4 m/s 755 mmHg 75%
    15:00 +19°C° 0.2 mm 3 m/s 755 mmHg 72%
    16:00 +20°C° 0.2 mm 3 m/s 754 mmHg 69%
    17:00 +21°C° 0.2 mm 3 m/s 754 mmHg 65%
    18:00 +20°C° 0.6 mm 3 m/s 754 mmHg 72%
    19:00 +19°C° 0.6 mm 3 m/s 754 mmHg 78%
    20:00 +17°C° 0.6 mm 3 m/s 753 mmHg 84%
    21:00 +17°C° 0.4 mm 3 m/s 753 mmHg 88%
    22:00 +16°C° 0.4 mm 3 m/s 753 mmHg 91%
    23:00 +16°C° 0.4 mm 3 m/s 753 mmHg 94%
    Mostrar mais